Tracking 28790 objects as of 19-Apr-2024
HD Live streaming from Space Station
objects crossing your sky now

DELTA 1 DEB

Track DELTA 1 DEB now!
10-day predictions


NORAD ID: 21339
Int'l Code: 1975-052BH
Perigee: 1,086.5 km
Apogee: 1,661.8 km
Inclination: 99.6 °
Period: 113.1 minutes
Semi major axis: 7745 km
RCS: 0.0936 m2 (small)
Launch date: June 12, 1975
Source: United States (US)
Launch site: AIR FORCE WESTERN TEST RANGE (AFWTR)

Note: This is SATELLITE DEBRIS
Your satellite tracking list
Your tracking list is empty




NASA's NSSDC Master Catalog

Two Line Element Set (TLE):
1 21339U 75052BH  24109.26297510  .00000191  00000-0  81096-3 0  9993
2 21339  99.5885   1.9696 0371370 153.1255 328.9808 12.73665707529051
Source of the keplerian elements: AFSPC